Tracking 32139 objects as of 18-Nov-2025
HD Live streaming from Space Station
objects crossing your sky now

STARLINK-35213

Track STARLINK-35213 now!
10-day predictions
STARLINK-35213 is classified as:


NORAD ID: 65638
Int'l Code: 2025-210S
Perigee: 453.4 km
Apogee: 455.4 km
Inclination: 53.2 °
Period: 93.5 minutes
Semi major axis: 6825 km
RCS: Unknown
Launch date: September 18, 2025
Source: United States (US)
Launch site: AIR FORCE EASTERN TEST RANGE (AFETR)
Your satellite tracking list
Your tracking list is empty




NASA's NSSDC Master Catalog

Two Line Element Set (TLE):
1 65638U 25210S   25321.70668098  .00076180  00000-0  18954-2 0  9996
2 65638  53.1592 107.3954 0001471  86.8715 273.2458 15.39622129 10587
Source of the keplerian elements: AFSPC